Regional Weather Roundup
Issued by NWS

Home | Current Version | Previous Version | Graphics & Text | Print | Product List | Glossary On
Versions: 1 2 3 4 5 6 7 8 9 10 11 12 13 14 15 16 17 18 19 20 21 22 23 24 25 26 27 28 29 30 31 32 33 34 35 36 37 38 39 40 41 42 43 44 45 46 47 48 49 50
000
ASUS44 KMEG 171400
RWRTN
TENNESSEE HOURLY STATE WEATHER ROUNDUP
NATIONAL WEATHER SERVICE MEMPHIS TN
900 AM CDT WED SEP 17 2014

TNZ002-004-019-021-049-052-054-088>092-171500-
WEST TENNESSEE

CITY           SKY/WX    TMP DP  RH WIND       PRES   REMARKS
MEMPHIS INTL   PTSUNNY   68  59  73 E6        30.02S
NWS MEMPHIS      N/A     65 N/A N/A MISG        N/A
JACKSON        MOSUNNY   62  57  83 E5        30.03F
DYERSBURG      CLOUDY    59  48  67 SE6       30.05S
UNION CITY     SUNNY     57  54  88 CALM      30.03R
PARIS          PTSUNNY   55  55 100 E6        30.04S
SAVANNAH       SUNNY     63  63 100 N3        30.03S
$$

TNZ008-025-027-028-033-062-065-066-171500-
NORTH MIDDLE TENNESSEE

CITY           SKY/WX    TMP DP  RH WIND       PRES   REMARKS
NASHVILLE      CLOUDY    58  56  93 NE5       30.04S FOG
CLARKSVILLE    FOG       53  53 100 E3        30.04F VSB<1/4
COOKEVILLE     PTSUNNY   61  57  88 CALM      30.03S
CROSSVILLE     CLOUDY    58  52  80 NE6       30.05F
$$

TNZ061-075-076-078-094-096-097-171500-
SOUTH MIDDLE TENNESSEE

CITY           SKY/WX    TMP DP  RH WIND       PRES   REMARKS
SHELBYVILLE    CLOUDY    61  59  94 CALM      30.04S
$$

TNZ017-018-042-046-047-171500-
NORTHEAST TENNESSEE

CITY           SKY/WX    TMP DP  RH WIND       PRES   REMARKS
TRI CITIES     PTSUNNY   64  56  75 VRB5      30.03S
ELIZABETHTON   PTSUNNY   61  59  94 CALM      30.03S
$$

TNZ012-013-036-069-073-074-171500-
CENTRAL EAST TENNESSEE

CITY           SKY/WX    TMP DP  RH WIND       PRES   REMARKS
KNOXVILLE      PTSUNNY   64  57  78 NE6       30.01F
OAK RIDGE      SUNNY     64  55  72 E3        30.04F
GATLINBURG     CLOUDY    63  57  82 CALM      30.02S
$$

TNZ083-085-099-171500-
SOUTHEAST TENNESSEE

CITY           SKY/WX    TMP DP  RH WIND       PRES   REMARKS
CHATTANOOGA    MOSUNNY   69  58  67 N8        30.01S
$$

SKY/WX REPORTED AS FAIR MEANS FEW OR NO CLOUDS BELOW
12 THOUSAND FEET.




USA.gov is the U.S. government's official web portal to all federal, state and local government web resources and services.